www.pogodaiklimat.ru

Погода и климат >> Архив погоды >> Австралия >> Западная Австралия >> Остров Тевенард


ПОГОДА на Острове Тевенард

  • Прогноз погоды на Острове Тевенард
  • Монитор погоды на Острове Тевенард

АРХИВ ПОГОДЫ на Острове Тевенард

Время (UTC), дата Ветер
(напр.,м/с)
 
Видим.   Явления Облачность Т
(С)
Тd
(С)
f
(%)
Тe
(С)
Тes
(С)
Комфортность P
(гПа)
Po
(гПа)
Тmin
(С)
Tmax
(С)
R
(мм)
R24
(мм)
S
(см)
13 12.05 З 4 н/о н/о +22.9 +14.2 58 +26 +26 жарко 1018.9 1018.3 +27.4
16 12.05 ЮЗ 5 н/о н/о +23.2 +15.3 61 +27 +27 душно 1018.1 1017.5
19 12.05 Ю 5 н/о н/о +21.7 +12.8 57 +24 +24 комфорт 1017.3 1016.7
22 12.05 В 4 н/о н/о +21.5 +13.7 61 +24 +24 комфорт 1017.5 1016.9
01 13.05 В 5 н/о н/о +24.1 +15.6 59 +27 +27 жарко 1019.0 1018.4 +20.3
04 13.05 В 5 н/о н/о +26.6 +14.0 46 +29 +29 жарко 1018.2 1017.6
07 13.05 С 5 н/о н/о +27.4 +8.8 31 +27 +27 жарко 1016.7 1016.1
10 13.05 С 4 н/о н/о +25.4 +10.8 40 +26 +26 жарко 1017.2 1016.6
13 13.05 штиль 0 н/о н/о +20.2 +11.4 57 +22 +22 комфорт 1018.3 1017.7 +28.6
16 13.05 ЮВ 3 н/о н/о +22.1 +18.7 81 +27 +27 душно 1018.2 1017.6
19 13.05 Ю 4 н/о н/о +22.5 +14.6 61 +26 +26 жарко 1017.1 1016.5
22 13.05 ЮВ 4 н/о н/о +21.7 +16.0 70 +25 +25 комфорт 1017.6 1017.0
01 14.05 В 6 н/о н/о +24.9 +11.1 42 +26 +26 жарко 1019.4 1018.8 +18.5
04 14.05 СВ 5 н/о н/о +26.8 +9.2 33 +27 +27 жарко 1018.1 1017.5
07 14.05 С 4 н/о н/о +28.0 +8.8 30 +28 +28 жарко 1016.0 1015.4
10 14.05 С 5 н/о н/о +25.5 +13.7 48 +28 +28 жарко 1016.9 1016.3
13 14.05 С 4 н/о н/о +24.8 +14.6 53 +27 +27 жарко 1018.2 1017.6 +28.8
16 14.05 Ю 5 н/о н/о +22.6 +20.3 87 +29 +29 очень
душно
1018.1 1017.5
19 14.05 Ю 6 н/о н/о +22.0 +16.1 69 +26 +26 душно 1017.5 1016.9
22 14.05 Ю 5 н/о н/о +21.8 +16.1 70 +26 +26 душно 1017.5 1016.9
01 15.05 ЮВ 6 н/о н/о +23.7 +15.5 60 +27 +27 жарко 1018.9 1018.3 +21.6
04 15.05 ЮВ 3 н/о н/о +26.9 +12.2 40 +28 +28 жарко 1017.6 1017.0
07 15.05 С 3 н/о н/о +29.0 +4.5 21 +27 +27 жарко 1015.9 1015.3
10 15.05 С 4 н/о н/о +25.9 +13.7 47 +28 +28 жарко 1016.1 1015.5
13 15.05 ЮЗ 2 н/о н/о +20.1 +15.9 77 +23 +23 комфорт 1017.5 1016.9 +30.0
16 15.05 Ю 4 н/о н/о +24.0 +16.5 63 +27 +27 жарко 1017.0 1016.4
19 15.05 Ю 4 н/о н/о +23.1 +13.6 55 +26 +26 жарко 1016.2 1015.6
22 15.05 ЮВ 4 н/о н/о +22.4 +12.1 52 +25 +25 комфорт 1016.4 1015.8
01 16.05 Ю 4 н/о н/о +24.9 +10.4 40 +26 +26 жарко 1017.6 1017.0 +19.3
04 16.05 ЮВ 2 н/о н/о +28.8 +9.0 29 +29 +29 жарко 1016.5 1015.9
07 16.05 ЮЗ 4 н/о н/о +29.0 +9.2 29 +29 +29 жарко 1014.9 1014.3
10 16.05 З 3 н/о н/о +25.0 +16.7 60 +29 +29 душно 1015.5 1014.9
13 16.05 З 4 н/о н/о +22.5 +16.3 68 +27 +27 душно 1016.3 1015.7 +30.7
16 16.05 ЮЗ 6 н/о н/о +25.0 +18.4 67 +30 +30 душно 1015.9 1015.3
19 16.05 Ю 7 н/о н/о +24.7 +13.9 51 +27 +27 жарко 1014.8 1014.2
22 16.05 Ю 8 н/о н/о +22.7 +9.1 42 +24 +24 комфорт 1015.3 1014.7
01 17.05 Ю 8 н/о н/о +22.9 +8.6 40 +24 +24 комфорт 1016.4 1015.8 +21.7
04 17.05 Ю 4 н/о н/о +28.1 +12.4 38 +29 +29 жарко 1015.4 1014.8
07 17.05 ЮЗ 5 н/о н/о +28.4 +17.6 52 +33 +33 очень
душно
1013.2 1012.6
10 17.05 ЮЗ 5 н/о н/о +25.2 +19.8 72 +31 +31 очень
душно
1013.6 1013.0
13 17.05 Ю 7 н/о н/о +25.9 +15.0 51 +29 +29 душно 1015.1 1014.5 +30.6
16 17.05 Ю 9 н/о н/о +24.3 +12.6 48 +26 +26 жарко 1015.2 1014.6
19 17.05 ЮВ 9 н/о н/о +22.5 +11.6 50 +25 +25 комфорт 1014.6 1014.0
22 17.05 ЮВ 6 н/о н/о +21.3 +11.1 52 +23 +23 комфорт 1014.8 1014.2
01 18.05 ЮВ 5 н/о н/о +22.5 +10.9 48 +25 +25 комфорт 1016.6 1016.0 +20.7
04 18.05 ЮВ 3 н/о н/о +25.5 +10.5 39 +26 +26 жарко 1016.0 1015.4
07 18.05 С 4 н/о н/о +27.7 +15.0 46 +30 +30 жарко 1014.7 1014.1
10 18.05 С 3 н/о н/о +24.0 +18.2 70 +28 +28 душно 1015.4 1014.8
13 18.05 СЗ 2 н/о н/о +21.1 +21.1 100 +26 +26 душно 1016.9 1016.3 +28.0
16 18.05 ЮВ 2 н/о н/о +20.3 +20.3 100 +25 +25 комфорт 1016.8 1016.2
19 18.05 ЮВ 3 н/о н/о +22.2 +19 +19 1016.2 1015.6
22 18.05 В 2 н/о н/о +21.8 +19 +19 1016.2 1015.6
01 19.05 В 3 н/о н/о +23.5 +23.3 99 +32 +32 очень
душно
1018.3 1017.7 +18.6
04 19.05 СВ 3 н/о {туман} н/о +25.4 +21.7 80 +33 +33 очень
душно
1017.3 1016.7
07 19.05 С 4 н/о {туман} н/о +27.4 +16.7 52 +31 +31 душно 1015.6 1015.0
10 19.05 С 3 н/о н/о +24.4 +17.9 67 +29 +29 душно 1015.6 1015.0
13 19.05 З 2 н/о н/о +18.7 +17.4 92 +20 +20 1017.6 1017.0 +27.7

 

Местоположение метеостанции Остров Тевенард (Западная Австралия, Австралия): широта -21.45 долгота 115.02 высота над уровнем моря 6 м.

В архиве по умолчанию представлена погода на Острове Тевенард за последнюю неделю. Архивные данные за месяц целиком и за предыдущие месяцы, начиная с января 2011 года, Вы можете получить, выбрав интересующий диапазон дат из раскрывающегося списка и нажав кнопку "Ввод!".


*Определитесь, кто Вы:
робот инопланетянин человек

Внимание! Время в таблицах - всемирное. Для получения местного времени необходимо прибавить поправку, которая равна 8 ч.

Смотрите также архив погоды в соседних городах и на ближайших метеорологических станциях:

Погода в Онслоу (Западная Австралия, Австралия) (27 км)
Погода в Барроу-Айленд (Западная Австралия, Австралия) (75 км)
Погода в Марди (Западная Австралия, Австралия) (103 км)
Погода на Острове Варанас (Западная Австралия, Австралия) (106 км)
Погода в Лермонте (Западная Австралия, Австралия) (130 км)
Погода в Каррате (Западная Австралия, Австралия) (199 км)
Погода в Роборн аэропорту (Западная Австралия, Австралия) (234 км)
Погода в Параберду (Западная Австралия, Австралия) (340 км)
Погода в Порт-Хедленде Apardoo (Западная Австралия, Австралия) (394 км)
Погода в Карнарвоне (Западная Австралия, Австралия) (406 км)

Пояснения к столбцам:

Ветер - указаны скорость ветра в м/с - средняя за 10 мин, порывы в срок и между сроками (в фигурных скобках) и направление, откуда дует ветер: С - северный, СВ - северо-восточный, В - восточный, ЮВ - юго-восточный, Ю - южный, ЮЗ - юго-западный, З - западный, СЗ - северо-западный.
Видимость - горизонтальная дальность видимости в метрах или километрах. При видимости от 1 до 10 км при отсутствии осадков обычно наблюдается дымка, при ухудшении видимости до 1 км и менее - туман. В сухую погоду видимость может ухудшаться дымом, пылью или мглою.
Явления - указаны атмосферные явления, наблюдавшиеся в срок или в последний час перед сроком; фигурными скобками обозначены явления, наблюдавшиеся между сроками (за 1-3 часа до срока); квадратными скобками обозначены град или гололедные отложения с указанием их диаметра в мм.
Облачность - указаны через наклонную черту общая и нижняя облачность в баллах и высота нижней границы облаков в метрах; квадратными скобками обозначены формы облаков: Ci - перистые, Cs - перисто-слоистые, Cc - перисто-кучевые, Ac - высококучевые, As - высокослоистые, Sc - слоисто-кучевые, Ns - слоисто-дождевые, Cu - кучевые, Cb - кучево-дождевые. Подробнее классификацию облаков см. в Атласе облаков (PDF).
T - Температура воздуха - температура, измеренная на высоте 2 м над землей.
Td - Температура точки росы - температура, при понижении до которой содержащийся в воздухе водяной пар достигнет насыщения.
f - Относительная влажность воздуха - влажноcть воздуха, измеренная на высоте 2 м над землей.
Te - Эффективная температура - температура, которую ощущает одетый по сезону человек в тени. Характеристика душности погоды. При расчете учитывается влияние влажности воздуха и скорости ветра на теплоощущения человека.
Tes - Эффективная температура на солнце - температура, которую ощущает человек, с поправкой на солнечный нагрев. Характеристика знойности погоды. Зависит от высоты солнца над горизонтом, облачности и скорости ветра. Ночью, в пасмурную погоду, а также при ветре 12 м/с и более поправка равна нулю.
P - Атмосферное давление - приведенное к уровню моря атмосферное давление.
Po - Атмосферное давление - измеренное на уровне метеостанции атмосферное давление.
Tmin - Минимальная температура - минимум температуры воздуха на высоте 2 м над землей.
Tmax - Максимальная температура - максимум температуры воздуха на высоте 2 м над землей.
R - Количество осадков - Количество выпавших осадков за период времени, мм. При наведении курсора мыши на число - период времени, за который выпало указанное количество осадков.
R24 - Количество осадков - Количество выпавших осадков за 24 часа, мм.
S - Снежный покров - Высота снежного покрова, см. При наведении курсора мыши на число - состояние снежного покрова и степень покрытия местности в баллах.